Погода в Балашове

Погода в Балашове : погода сейчас, прогноз погоды и архив. Всё, что Вы хотите узнать о погоде в Балашове!

Хотите узнать прогноз погоды в Балашове? Тогда Вам сюда: Погода в Балашове

Поиск расширенной информации на нашем сайте:

Другие новости

Новости СМИ2

Главная страница сайта

Новости сайта

03.07.2017

Напоминаем, что на нашем специализированном сайте Метеоцентр.Азия вы можете получить высокодетализированные автоматические прогнозы погоды по пунктам России, СНГ и мира в авиационном формате (включающие направление и скорость ветра, видимость, явления погоды, количество и форму облачности, нижнюю и верхнюю границу облачности).

Рекомендуем: Остекление балконов в казани сравнить пульс цен балконы остекление цены.

Погода в Балашове - сегодня

Время (UTC), дата Ветер
(°,м/с) 
Видим.   Явления Облачность Т
(°С)
Тd
(°С)
f(%) Тe
(°С)
Pmin
(гПа)
dP
(гПа)
Po
(мм)
O2
(г/м3)
Тmin Tmax R s Состояние
почвы
03 19.09.17 150 (ЮВ) 20000 м    ясно 
+15.4 +8.8 65 +16  1013.4  0.4  746  283  +15        сухая 
06 19.09.17 220 (ЮЗ) 20000 м    3/0 средняя 
[Ac trans]
+20 +10.6 55 +22  1014.9  1.8  747  279           
09 19.09.17 230 (ЮЗ) 20000 м    6/0 средняя, верхняя 
[Ac cast|Ci fib]
+23.4 +10.9 45 +26  1015.6  748  276           
12 19.09.17 250 (З) 20000 м    5/0 верхняя 
[Ci fib]
+25.7 +11 40 +28  1015.3  -0.2  748  273           
15 19.09.17 330 (СЗ) 20000 м    6/0 средняя, верхняя 
[Ac cast|Ci fib]
+21.8 +11 50 +24  1016.8  1.1  749  277    +27.7       
18 19.09.17 360 (С) 20000 м    ясно 
+16.4 +7.7 56 +17  1018.2  1.1  750  284           
21 19.09.17 020 (С) 20000 м    ясно 
+14.6 +6.8 59 +15  1019.3  0.9  750  286           
00 20.09.17 020 (С) 20000 м    ясно 
+13.7 +6.8 63 +14  1019.9  0.6  751  287           
03 20.09.17 010 (С) 20000 м    1/0 средняя 
[Ac trans]
+10.4 +7.7 83 +12  1021  0.9  751  290  +10.4        сухая 
06 20.09.17 020 (С) 20000 м    1/0 верхняя 
[Ci fib]
+15.2 +9.4 68 +15  1021.1  0.5  752  285  +9.5         
09 20.09.17 030 (СВ) 20000 м    ясно 
+21.6 +10 48 +23  1020.6  -0.2  752  279           
12 20.09.17 020 (С) 20000 м    ясно 
+23 +9.5 42 +24  1020.3  -0.3  751  278           
15 20.09.17 030 (СВ) 20000 м    ясно 
+19.8 +9.3 51 +21  1020.3  -0.1  751  281    +23.7       
18 20.09.17 040 (СВ) 20000 м    ясно 
+15.6 +8.5 63 +16  1020.8  0.3  752  285           
21 20.09.17 040 (СВ) 20000 м    ясно 
+13.8 +7.7 67 +14  1021.1  0.1  752  287           
00 21.09.17 050 (СВ) 20000 м    ясно 
+11.8 +7.7 76 +12  1021.3  0.1  752  289           
03 21.09.17 060 (СВ) 20000 м    1/0 верхняя 
[Ci fib]
+11.9 +7.1 72 +12  1021.4  0.1  752  289  +10.4        сухая 
06 21.09.17 060 (СВ) 20000 м    ясно 
+15.7 +8.2 61 +16  1022  0.8  752  285           
09 21.09.17 080 (В) 20000 м    ясно 
+21.8 +8.9 44 +22  1021.7  752  279           
12 21.09.17 070 (В) 20000 м    3/0 верхняя 
[Ci fib]
+23.8 +9.3 40 +24  1021.2  -0.3  752  277           
15 21.09.17 080 (В) 20000 м    8/0 верхняя 
[Ci fib]
+21.9 +8.5 42 +22  1021.9  0.5  752  279    +25       
18 21.09.17 050 (СВ) 20000 м    ясно 
+17.1 +6.8 51 +18  1022.3  0.2  753  284           
21 21.09.17 060 (СВ) 20000 м    ясно 
+13.4 +6.8 64 +14  1023.7  1.1  753  288           
00 22.09.17 050 (СВ) 20000 м    ясно 
+11.3 +6.8 74 +11  1024.8  754  291           
03 22.09.17 080 (В) 20000 м    8/0 верхняя 
[Ci fib]
+10.6 +7.4 81 +10  1026  1.1  755  292  +10.6        сухая 
Время (UTC), дата Ветер
(°,м/с) 
Видим.   Явления Облачность Т
(°С)
Тd
(°С)
f(%) Тe
(°С)
Pmin
(гПа)
dP
(гПа)
Po
(мм)
O2
(г/м3)
Тmin Tmax R s Состояние
почвы

Для получения пояснительной информации подведите курсор к названию столбца.

ПОГОДА в Балашове - архив

Всё, что Вы хотите узнать о погоде в Балашове - удобно и подробно!

Выберите нужную дату (начиная с 1 января 2015* года) и нажмите кнопку "Найти".
Будут отображены архивные сводки погоды по пункту Балашов, начиная с указанной даты.


Отображать данные в формате CSV (для использования в таблицах Excel)


Внимание! Наш архив погоды предназначен исключительно для личного некоммерческого использования в познавательных целях. Если Вам необходимы официальные справки о состоянии погоды (для производственных, юридических, коммерческих и т.п. целей), обращайтесь в органы Росгидромета.

*Примечание: данная дата относится к архиву по метеостанциям СССР (Россия, СНГ, Балтия).
Архив по метеостанциям Зарубежной Европы и Азии (кроме Китая) хранится 10 дней, по другим регионам земного шара (Китай, Африка, Америка, Австралия, Океания) - 1 день.

Балашов - район местоположения метеостанции


Название, широта, долгота, высота метеостанции:
Балашов 51.6°ш. 43.2°д. 159 м над ур. моря [Российская Федерация]

Дополнительная информация

В oтличие oт бoльшинства пoгoдных сайтoв мы публикуем пoдрoбную метеoинфoрмацию в детальнoм прoфессиoнальнoм фoрмате.

Характеристики температуры и влажнoсти вoздуха измеряются на высoте 2 м в тени вдали oт зданий и деревьев.
Скoрoсть ветра измеряется на высoте 10 м (на урoвне рoста челoвека скoрoсть ветра ниже в 1.5-2 раза). Если метеoстанция нахoдится в гoрoде или в лесу, тo скoрoсть ветра занижена на 2-4 м/с пo сравнению с oткрытым местoм. Скoрoсть ветра над акватoриями крупных рек и oзёр, а также на вершинах хoлмoв на 2-5 м/с выше, чем в oбычных услoвиях.
Атмoсфернoе давление в разных тoчках местнoсти мoжет значительнo oтличаться oт давления на метеoстанции, в зависимoсти oт услoвий рельефа (при пoдъёме на 10 м давление пoнижается примернo на 1 мм рт.ст.).